This is the latest recevied weather packets stored in our database for station/object KC0RKM-13. If no packets are shown the sender has not sent any weather packets the latest 10 day(s).
| Time | Temp. | Humidity | Pressure | Rain* | Wind** | Luminosity | Snow |
|---|---|---|---|---|---|---|---|
| 1788430803 | 25.56° C | 67% | 1012.2 hPa | 0 mm | - | - | - |
| 1788430204 | 25.56° C | 66% | 1012.4 hPa | 0 mm | - | - | - |
| 1788429604 | 25.56° C | 65% | 1012.5 hPa | 0 mm | - | - | - |
| 1788429003 | 25.56° C | 65% | 1012.4 hPa | 0 mm | - | - | - |
| 1788428403 | 25.56° C | 65% | 1012.5 hPa | 0 mm | - | - | - |
| 1788427803 | 25.56° C | 64% | 1012.3 hPa | 0 mm | - | - | - |
| 1788427203 | 25° C | 64% | 1012.3 hPa | 0 mm | - | - | - |
| 1788426603 | 25.56° C | 64% | 1012.2 hPa | 0 mm | - | - | - |
| 1788426003 | 25° C | 64% | 1012.2 hPa | 0 mm | - | - | - |
| 1788425404 | 25.56° C | 64% | 1012.1 hPa | 0 mm | - | - | - |
| 1788424804 | 25.56° C | 63% | 1012 hPa | 0 mm | - | - | - |
| 1788424204 | 26.11° C | 62% | 1012.3 hPa | 0 mm | - | - | - |
| 1788423603 | 26.11° C | 62% | 1012.5 hPa | 0 mm | - | - | - |
| 1788423004 | 26.11° C | 62% | 1012.4 hPa | 0 mm | - | - | - |
| 1788422404 | 25.56° C | 63% | 1012.1 hPa | 0 mm | - | - | - |
| 1788421804 | 25.56° C | 65% | 1012 hPa | 0 mm | - | - | - |
| 1788421203 | 26.11° C | 64% | 1012.1 hPa | 0 mm | - | - | - |
| 1788420604 | 26.11° C | 63% | 1012.1 hPa | 0 mm | - | - | - |
| 1788420004 | 26.11° C | 64% | 1012.1 hPa | 0 mm | - | - | - |
| 1788419403 | 26.67° C | 63% | 1012 hPa | 0 mm | - | - | - |
| 1788418803 | 27.22° C | 61% | 1011.7 hPa | 0 mm | - | - | - |
| 1788418203 | 27.22° C | 59% | 1011.9 hPa | 0 mm | - | - | - |
| 1788417604 | 27.22° C | 58% | 1012 hPa | 0 mm | - | - | - |
| 1788417004 | 27.22° C | 58% | 1012 hPa | 0 mm | - | - | - |
| 1788416404 | 27.22° C | 58% | 1012 hPa | 0 mm | - | - | - |
* Rain latest hour (hover to see other rain measurements)
** Current wind speed in m/s (hover to see current wind gust speed)